Location: Izdebno
(52.6670°N, 16.2170°E)
Time: 07:47:14
(UTC+02:00)

Vanguard 1 - Pass Details

Date: 01 March 2024
Orbit: 653 x 3825 km, 34.2° (Epoch: 22 April)

Event Time Altitude Azimuth Distance (km) Brightness Sun altitude
Rises 19:46:00 0° 239° (WSW) 5,131 14.4 -20.5°
Reaches altitude 10° 19:49:08 10° 231° (SW) 4,502 13.9 -21.0°
Maximum altitude 20:01:11 39° 169° (S) 3,822 12.7 -22.7°
Enters shadow 20:09:56 28° 128° (SE) 4,991 13.0 -24.0°
